Location: Knowlton
(51.2333°N, 1.2667°E)
Time: 05:08:15
(UTC+00:00)

Nadezhda 4 Rocket - Pass Details

Date: 18 April 2021
Orbit: 950 x 992 km, 82.9° (Epoch: 06 May)

Event Time Altitude Azimuth Distance (km) Brightness Sun altitude
Rises 19:22:40 0° 349° (N) 3,717 7.6 -4.7°
Reaches altitude 10° 19:25:13 10° 348° (NNW) 2,761 6.9 -5.0°
Maximum altitude 19:31:33 80° 264° (W) 1,003 4.2 -5.9°
Drops below altitude 10° 19:37:47 10° 177° (S) 2,718 6.1 -6.8°
Sets 19:40:16 0° 177° (S) 3,655 6.7 -7.1°
